• In Uzbekistan
  • List of Countries
  • For 7 days
  • Water Temperature
  • Satellite Maps
  • Weather Map
  • Weather Widgets
  • user-avatar
    Login

    Hourly Weather Capao Bonito

    Today, 12 December, Tuesday

    Time Temperature Precipitation Wind Pressure Humidity
    00:00 +17°C° 0 mm 4 mps 701 mmHg 87%
    01:00 +17°C° 0 mm 4 mps 701 mmHg 87%
    02:00 +17°C° 0 mm 4 mps 701 mmHg 87%
    03:00 +15°C° 0 mm 4 mps 701 mmHg 88%
    04:00 +16°C° 0 mm 3 mps 701 mmHg 88%
    05:00 +16°C° 0 mm 3 mps 701 mmHg 87%
    06:00 +16°C° 0 mm 3 mps 702 mmHg 87%
    07:00 +18°C° 0 mm 4 mps 702 mmHg 81%
    08:00 +19°C° 0 mm 4 mps 703 mmHg 74%
    09:00 +21°C° 0 mm 4 mps 704 mmHg 67%
    10:00 +22°C° 0 mm 4 mps 704 mmHg 62%
    11:00 +25°C° 0 mm 4 mps 704 mmHg 58%
    12:00 +26°C° 0 mm 4 mps 704 mmHg 53%
    13:00 +26°C° 0 mm 4 mps 704 mmHg 54%
    14:00 +26°C° 0 mm 4 mps 703 mmHg 55%
    15:00 +26°C° 0 mm 4 mps 703 mmHg 56%
    16:00 +23°C° 0 mm 4 mps 703 mmHg 61%
    17:00 +22°C° 0 mm 4 mps 703 mmHg 67%
    18:00 +20°C° 0 mm 4 mps 703 mmHg 72%
    19:00 +19°C° 0 mm 4 mps 703 mmHg 76%
    20:00 +18°C° 0 mm 3 mps 703 mmHg 81%
    21:00 +17°C° 0 mm 3 mps 703 mmHg 85%
    22:00 +17°C° 0 mm 3 mps 704 mmHg 86%
    23:00 +16°C° 0 mm 3 mps 704 mmHg 88%

    Tomorrow, 13 December, Wednesday

    Time Temperature Precipitation Wind Pressure Humidity
    00:00 +16°C° 0 mm 3 mps 704 mmHg 89%
    01:00 +16°C° 0 mm 2 mps 704 mmHg 90%
    02:00 +16°C° 0 mm 2 mps 703 mmHg 90%
    03:00 +16°C° 0 mm 2 mps 703 mmHg 91%
    04:00 +16°C° 0 mm 2 mps 703 mmHg 91%
    05:00 +16°C° 0 mm 2 mps 703 mmHg 90%
    06:00 +16°C° 0 mm 2 mps 704 mmHg 90%
    07:00 +18°C° 0 mm 2 mps 704 mmHg 84%
    08:00 +19°C° 0 mm 3 mps 705 mmHg 78%
    09:00 +21°C° 0 mm 3 mps 705 mmHg 72%
    10:00 +24°C° 0 mm 3 mps 705 mmHg 67%
    11:00 +25°C° 0 mm 2 mps 705 mmHg 62%
    12:00 +27°C° 0 mm 2 mps 705 mmHg 56%
    13:00 +27°C° 0 mm 3 mps 705 mmHg 58%
    14:00 +26°C° 0 mm 3 mps 704 mmHg 60%
    15:00 +26°C° 0 mm 3 mps 703 mmHg 62%
    16:00 +25°C° 0 mm 3 mps 703 mmHg 67%
    17:00 +24°C° 0 mm 3 mps 703 mmHg 72%
    18:00 +22°C° 0 mm 3 mps 703 mmHg 76%
    19:00 +21°C° 0 mm 3 mps 703 mmHg 82%
    20:00 +19°C° 0 mm 3 mps 704 mmHg 87%
    21:00 +18°C° 0 mm 2 mps 704 mmHg 92%
    22:00 +17°C° 0 mm 2 mps 704 mmHg 93%
    23:00 +17°C° 0 mm 2 mps 704 mmHg 94%

    Day after tomorrow, 14 December, Thursday

    Time Temperature Precipitation Wind Pressure Humidity
    00:00 +16°C° 0 mm 2 mps 704 mmHg 95%
    01:00 +16°C° 0 mm 2 mps 704 mmHg 95%
    02:00 +16°C° 0 mm 2 mps 703 mmHg 95%
    03:00 +16°C° 0 mm 1 mps 703 mmHg 94%
    04:00 +16°C° 0 mm 1 mps 703 mmHg 94%
    05:00 +16°C° 0 mm 1 mps 703 mmHg 93%
    06:00 +16°C° 0 mm 1 mps 703 mmHg 92%
    07:00 +19°C° 0 mm 1 mps 704 mmHg 82%
    08:00 +22°C° 0 mm 1 mps 704 mmHg 71%
    09:00 +25°C° 0 mm 1 mps 705 mmHg 61%
    10:00 +27°C° 0 mm 1 mps 705 mmHg 57%
    11:00 +29°C° 0 mm 1 mps 705 mmHg 53%
    12:00 +31°C° 0 mm 1 mps 705 mmHg 49%
    13:00 +31°C° 0 mm 1 mps 704 mmHg 47%
    14:00 +31°C° 0 mm 1 mps 703 mmHg 45%
    15:00 +32°C° 0 mm 1 mps 703 mmHg 43%
    16:00 +30°C° 0 mm 1 mps 702 mmHg 49%
    17:00 +29°C° 0 mm 2 mps 702 mmHg 54%
    18:00 +28°C° 0 mm 2 mps 702 mmHg 60%
    19:00 +25°C° 0 mm 2 mps 702 mmHg 70%
    20:00 +23°C° 0 mm 2 mps 702 mmHg 80%
    21:00 +20°C° 0 mm 2 mps 702 mmHg 90%
    22:00 +20°C° 0 mm 1 mps 702 mmHg 92%
    23:00 +20°C° 0 mm 1 mps 702 mmHg 94%

    15 December, Friday

    Time Temperature Precipitation Wind Pressure Humidity
    00:00 +19°C° 0 mm 1 mps 702 mmHg 95%
    01:00 +19°C° 0 mm 1 mps 701 mmHg 94%
    02:00 +18°C° 0 mm 1 mps 701 mmHg 93%
    03:00 +18°C° 0 mm 1 mps 701 mmHg 91%
    04:00 +18°C° 0 mm 1 mps 701 mmHg 90%
    05:00 +18°C° 0 mm 1 mps 701 mmHg 88%
    06:00 +18°C° 0 mm 1 mps 702 mmHg 86%
    07:00 +20°C° 0 mm 0 mps 702 mmHg 74%
    08:00 +23°C° 0 mm 0 mps 703 mmHg 62%
    09:00 +26°C° 0 mm 0 mps 704 mmHg 50%
    10:00 +30°C° 0 mm 1 mps 704 mmHg 44%
    11:00 +32°C° 0 mm 1 mps 704 mmHg 38%
    12:00 +34°C° 0 mm 1 mps 704 mmHg 33%
    13:00 +33°C° 0 mm 1 mps 703 mmHg 33%
    14:00 +34°C° 0 mm 2 mps 702 mmHg 33%
    15:00 +34°C° 0 mm 2 mps 702 mmHg 33%
    16:00 +31°C° 0 mm 2 mps 701 mmHg 39%
    17:00 +30°C° 0 mm 3 mps 701 mmHg 45%
    18:00 +28°C° 0 mm 3 mps 700 mmHg 51%
    19:00 +26°C° 0 mm 3 mps 701 mmHg 59%
    20:00 +22°C° 0 mm 3 mps 701 mmHg 66%
    21:00 +20°C° 0 mm 2 mps 701 mmHg 74%
    22:00 +20°C° 0 mm 2 mps 701 mmHg 77%
    23:00 +19°C° 0 mm 2 mps 701 mmHg 80%

    16 December, Saturday

    Time Temperature Precipitation Wind Pressure Humidity
    00:00 +18°C° 0 mm 2 mps 701 mmHg 82%
    01:00 +18°C° 0 mm 2 mps 701 mmHg 84%
    02:00 +17°C° 0 mm 2 mps 701 mmHg 86%
    03:00 +17°C° 0 mm 2 mps 700 mmHg 88%
    04:00 +17°C° 0 mm 2 mps 701 mmHg 88%
    05:00 +17°C° 0 mm 2 mps 701 mmHg 88%
    06:00 +17°C° 0 mm 2 mps 701 mmHg 88%
    07:00 +19°C° 0 mm 2 mps 702 mmHg 76%
    08:00 +23°C° 0 mm 2 mps 703 mmHg 64%
    09:00 +26°C° 0 mm 2 mps 703 mmHg 52%
    10:00 +28°C° 0 mm 2 mps 703 mmHg 47%
    11:00 +30°C° 0 mm 2 mps 703 mmHg 42%
    12:00 +32°C° 0 mm 1 mps 703 mmHg 37%
    13:00 +32°C° 0 mm 2 mps 702 mmHg 36%
    14:00 +34°C° 0 mm 2 mps 702 mmHg 35%
    15:00 +34°C° 0 mm 2 mps 701 mmHg 33%
    16:00 +31°C° 0 mm 2 mps 701 mmHg 41%
    17:00 +30°C° 0 mm 2 mps 700 mmHg 48%
    18:00 +28°C° 0 mm 3 mps 700 mmHg 55%
    19:00 +26°C° 0 mm 2 mps 700 mmHg 66%
    20:00 +23°C° 0 mm 2 mps 700 mmHg 78%
    21:00 +20°C° 0 mm 2 mps 701 mmHg 89%
    22:00 +19°C° 0 mm 2 mps 700 mmHg 91%
    23:00 +19°C° 0 mm 2 mps 700 mmHg 93%

    17 December, Sunday

    Time Temperature Precipitation Wind Pressure Humidity
    00:00 +20°C° 0 mm 1 mps 700 mmHg 95%
    01:00 +19°C° 0 mm 1 mps 700 mmHg 95%
    02:00 +19°C° 0 mm 1 mps 700 mmHg 95%
    03:00 +19°C° 0 mm 1 mps 699 mmHg 95%
    04:00 +19°C° 0 mm 1 mps 700 mmHg 93%
    05:00 +20°C° 0 mm 1 mps 701 mmHg 91%
    06:00 +20°C° 0 mm 1 mps 701 mmHg 90%
    07:00 +23°C° 0 mm 1 mps 702 mmHg 79%
    08:00 +26°C° 0 mm 2 mps 703 mmHg 68%
    09:00 +29°C° 0 mm 2 mps 704 mmHg 58%
    10:00 +30°C° 0.3 mm 2 mps 704 mmHg 54%
    11:00 +31°C° 0.3 mm 2 mps 704 mmHg 51%
    12:00 +32°C° 0.3 mm 2 mps 704 mmHg 48%
    13:00 +32°C° 0.1 mm 2 mps 703 mmHg 47%
    14:00 +32°C° 0.1 mm 2 mps 703 mmHg 45%
    15:00 +32°C° 0.1 mm 2 mps 702 mmHg 44%
    16:00 +31°C° 0 mm 1 mps 702 mmHg 49%
    17:00 +30°C° 0 mm 1 mps 702 mmHg 53%
    18:00 +30°C° 0 mm 1 mps 702 mmHg 57%
    19:00 +27°C° 1.1 mm 1 mps 702 mmHg 68%
    20:00 +25°C° 1.1 mm 1 mps 702 mmHg 78%
    21:00 +22°C° 1.1 mm 1 mps 702 mmHg 89%
    22:00 +22°C° 0.5 mm 1 mps 702 mmHg 90%
    23:00 +22°C° 0.5 mm 1 mps 702 mmHg 90%
    Show more